Weather History for KWLD - December, 2012

Change the Weather History Date:

Sunday, December 2, 2012

  Actual Average Record
Temperature  
Mean Temperature 52 °F -  
Max Temperature 70 °F 49 °F 71 °F (2001)
Min Temperature 33 °F 30 °F 1 °F (2006)
Degree Days  
Heating Degree Days 14    
Growing Degree Days 2 (Base 50)    
Moisture  
Dew Point 42 °F    
Average Humidity 81    
Maximum Humidity 100    
Minimum Humidity 39    
Precipitation  
Precipitation 0.00 in - - ()
Sea Level Pressure  
Sea Level Pressure 29.97 in    
Wind  
Wind Speed 4 mph (SSE)    
Max Wind Speed 21 mph    
Max Gust Speed 29 mph    
Visibility 7 miles    
Events Fog    
Averages and records for this station are not official NWS values.
T = Trace of Precipitation, MM = Missing Value Source: NWS Daily Summary

Daily Weather History Graph

Daily Weather History Graph

Search for Another Location

Airport or City:

Trip Planner

Search our weather history database for the weather conditions in past years. The results will help you decide how hot, cold, wet, or windy it might be!

Date:

Astronomy

Dec. 02, 2012 Rise Set
Actual Time 7:24 AM CST 5:10 PM CST
Civil Twilight 6:55 AM CST 5:39 PM CST
Nautical Twilight 6:23 AM CST 6:11 PM CST
Astronomical Twilight 5:52 AM CST 6:43 PM CST
Moon 8:57 PM CST (12/2) 10:16 AM CST (12/2)
Length of Visible Light 10h 43m
Length of Day
9h 46m
Waning Gibbous, 85% of the Moon is Illuminated
Dec 2
Waning Gibbous
Dec 6
Last Quarter
Dec 13
New
Dec 19
First Quarter
Dec 28
Full

Hourly Weather History & Observations

Time (CST) Temp. Windchill Dew Point Humidity Pressure Visibility Wind Dir Wind Speed Gust Speed Precip Events Conditions
12:54 AM 37.9 °F 32.7 °F 35.1 °F 89% 29.95 in 10.0 mi North 6.9 mph - N/A   Clear
1:54 AM 39.0 °F - 35.1 °F 86% 29.95 in 10.0 mi Calm Calm - N/A   Clear
2:54 AM 37.0 °F - 34.0 °F 89% 29.97 in 10.0 mi Calm Calm - N/A   Clear
3:54 AM 36.0 °F 33.3 °F 34.0 °F 93% 29.98 in 10.0 mi North 3.5 mph - N/A   Clear
4:54 AM 36.0 °F - 34.0 °F 93% 29.99 in 10.0 mi Calm Calm - N/A   Clear
5:54 AM 36.0 °F - 35.1 °F 97% 30.01 in 9.0 mi Calm Calm - N/A   Clear
6:35 AM 33.8 °F 30.8 °F 32.0 °F 93% 30.02 in 8.0 mi NW 3.5 mph - N/A   Scattered Clouds
6:43 AM 35.6 °F - 33.8 °F 93% 30.02 in 1.2 mi Calm Calm - N/A   Mostly Cloudy
6:45 AM 35.6 °F - 33.8 °F 93% 30.02 in 0.5 mi Calm Calm - N/A Fog Fog
6:54 AM 36.0 °F - 36.0 °F 100% 30.03 in 0.2 mi Calm Calm - N/A Fog Fog
7:54 AM 37.0 °F 34.5 °F 37.0 °F 100% 30.05 in 0.2 mi NNW 3.5 mph - N/A Fog Fog
8:39 AM 39.2 °F - 39.2 °F 100% 30.04 in 1.0 mi Calm Calm - N/A   Mist
8:49 AM 42.8 °F - 41.0 °F 93% 30.04 in 2.0 mi Calm Calm - N/A   Overcast
8:54 AM 42.1 °F 40.2 °F 41.0 °F 96% 30.05 in 1.2 mi NNW 3.5 mph - N/A   Overcast
9:00 AM 42.8 °F 41.1 °F 42.8 °F 100% 30.04 in 0.5 mi NNW 3.5 mph - N/A Fog Fog
9:29 AM 44.6 °F - 44.6 °F 100% 30.05 in 1.0 mi Calm Calm - N/A   Overcast
9:54 AM 45.0 °F - 44.1 °F 97% 30.06 in 3.0 mi Calm Calm - N/A   Mostly Cloudy
10:13 AM 46.4 °F - 44.6 °F 93% 30.06 in 6.0 mi Calm Calm - N/A   Partly Cloudy
10:54 AM 52.0 °F - 48.0 °F 86% 30.05 in 7.0 mi Calm Calm - N/A   Clear
11:54 AM 61.0 °F - 51.1 °F 70% 30.02 in 9.0 mi ESE 4.6 mph - N/A   Clear
12:54 PM 66.0 °F - 51.1 °F 59% 29.98 in 10.0 mi SE 3.5 mph - N/A   Clear
1:54 PM 70.0 °F - 48.9 °F 47% 29.95 in 10.0 mi South 10.4 mph - N/A   Clear
2:54 PM 70.0 °F - 44.1 °F 39% 29.93 in 10.0 mi South 10.4 mph - N/A   Clear
3:54 PM 66.9 °F - 43.0 °F 42% 29.92 in 10.0 mi SSE 11.5 mph - N/A   Clear
4:54 PM 61.0 °F - 45.0 °F 56% 29.92 in 10.0 mi SSE 5.8 mph - N/A   Clear
5:54 PM 57.9 °F - 43.0 °F 58% 29.92 in 10.0 mi SSE 4.6 mph - N/A   Clear
6:54 PM 55.0 °F - 43.0 °F 64% 29.91 in 10.0 mi SSE 5.8 mph - N/A   Clear
7:54 PM 57.9 °F - 44.1 °F 60% 29.88 in 10.0 mi SSE 10.4 mph - N/A   Clear
8:54 PM 59.0 °F - 48.9 °F 69% 29.85 in 10.0 mi SSE 11.5 mph - N/A   Clear
9:54 PM 60.1 °F - 53.1 °F 78% 29.84 in 10.0 mi SSE 10.4 mph - N/A   Clear
10:54 PM 64.9 °F - 57.9 °F 78% 29.82 in 10.0 mi South 19.6 mph - N/A   Clear
11:54 PM 66.0 °F - 57.0 °F 73% 29.80 in 10.0 mi South 20.7 mph 28.8 mph N/A   Clear